Location: Dehesa de la Cepeda
(40.6574°N, 4.3013°W)
Time: 09:17:33
(UTC+00:00)

Transit 2A Rocket - Pass Details

Date: 12 August 2021
Orbit: 586 x 917 km, 66.7° (Epoch: 24 September)

Event Time Altitude Azimuth Distance (km) Brightness Sun altitude
Rises 11:05:17 0° 195° (SSW) 2,832 8.2 59.2°
Reaches altitude 10° 11:07:29 10° 190° (S) 1,959 7.6 59.5°
Maximum altitude 11:11:45 52° 114° (ESE) 797 6.9 60.0°
Drops below altitude 10° 11:16:24 10° 39° (NE) 2,129 7.3 60.5°
Sets 11:18:52 0° 34° (NE) 3,105 8.0 60.7°
